{"data":{"norad_id":41394,"epoch":"2026-05-25T02:14:01.642848Z","epoch_age_seconds":70077,"freshness":"FRESH","line1":"1 41394U 16020A   26145.09307457  .00001379  00000+0  93964-4 0  9997","line2":"2 41394  97.9775 159.7001 0024261  24.5429 335.6947 15.07866245556930","mean_motion":15.07866245,"eccentricity":0.0024261,"inclination_deg":97.9775,"raan_deg":159.7001,"arg_perigee_deg":24.5429,"mean_anomaly_deg":335.6947,"bstar":9.3964e-5,"rev_number":55693,"period_min":95.499186666918,"perigee_km":525.93067558297,"apogee_km":559.51206456624,"semimajor_km":6920.8583700746,"source":"CELESTRAK","updated_at":"2026-05-25T13:37:55.615429Z"}}